Date,TemperatureHighF,TemperatureAvgF,TemperatureLowF,DewpointHighF,DewpointAvgF,DewpointLowF,HumidityHigh,HumidityAvg,HumidityLow,PressureMaxIn,PressureMinIn,WindSpeedMaxMPH,WindSpeedAvgMPH,GustSpeedMaxMPH,PrecipitationSumIn
2013-5-1,85,71,61,61,57,50,92,66,31,30.22,29.98,3,0,16,0.00
2013-5-2,70,63,54,61,48,38,87,61,32,30.40,30.12,4,0,10,0.01
2013-5-3,75,58,46,51,47,42,91,69,33,30.41,30.17,0,0,6,0.00
2013-5-4,81,65,48,56,45,38,86,54,22,30.28,30.07,8,1,16,0.00
2013-5-5,69,60,52,50,47,44,82,64,44,30.32,30.20,3,0,10,0.00
2013-5-6,48,46,44,43,42,40,87,86,84,30.32,30.30,0,0,0,0.00
2013-5-7,68,57,46,55,50,43,92,79,55,30.46,30.36,3,0,8,0.00
2013-5-8,70,57,44,56,50,42,93,80,56,30.52,30.41,4,0,10,0.00
2013-5-9,73,57,46,57,48,43,93,76,40,30.52,30.41,1,0,6,0.11
2013-5-10,74,56,41,53,47,38,92,73,42,30.53,30.41,2,0,8,0.00
2013-5-11,72,60,50,59,54,47,92,81,61,30.50,30.38,4,0,11,0.01
2013-5-12,72,58,49,58,50,47,93,78,43,30.41,30.25,0,0,5,0.00
2013-5-13,77,60,47,57,50,44,92,74,39,30.24,30.00,1,0,8,0.02
2013-5-14,71,62,55,57,52,38,91,72,41,30.01,29.89,2,0,10,0.08
2013-5-15,70,55,42,43,40,37,85,60,34,30.06,29.92,3,1,14,0.00
2013-5-16,70,60,50,49,45,42,76,57,43,29.97,29.86,4,1,18,0.00
2013-5-17,69,59,53,47,42,34,74,55,28,30.03,29.92,5,1,18,0.00
2013-5-18,68,58,50,43,39,35,72,52,32,30.08,29.95,3,1,13,0.00
2013-5-19,67,56,49,41,37,34,65,50,30,30.14,30.04,2,0,12,0.00
2013-5-20,69,54,41,43,39,35,82,58,34,30.19,30.05,3,0,12,0.00
2013-5-21,73,61,48,43,41,38,77,50,28,30.12,29.97,3,1,17,0.00
2013-5-22,60,55,49,52,47,42,91,77,62,30.05,29.86,0,0,5,0.25
2013-5-23,59,55,51,56,52,49,94,91,82,30.05,29.87,2,0,11,0.06
2013-5-24,66,58,53,53,52,50,93,81,58,30.19,30.05,4,1,16,0.14
2013-5-25,69,59,51,52,49,46,90,73,47,30.32,30.20,2,0,10,0.02
2013-5-26,71,53,39,47,41,36,93,69,30,30.39,30.27,1,0,10,0.00
2013-5-27,62,50,39,55,46,36,92,85,65,30.50,30.34,2,0,8,0.01
2013-5-28,66,58,50,59,54,48,93,88,73,30.58,30.46,2,0,7,0.02
2013-5-29,67,57,51,59,52,47,93,85,63,30.55,30.42,0,0,3,0.00
2013-5-30,75,56,44,55,47,42,93,76,38,30.51,30.36,1,0,7,0.01
2013-5-31,77,57,43,54,48,40,93,74,40,30.47,30.30,0,0,6,0.00